Date,TemperatureHighF,TemperatureAvgF,TemperatureLowF,DewpointHighF,DewpointAvgF,DewpointLowF,HumidityHigh,HumidityAvg,HumidityLow,PressureMaxIn,PressureMinIn,WindSpeedMaxMPH,WindSpeedAvgMPH,GustSpeedMaxMPH,PrecipitationSumIn
2014-1-1,14.7,12.2,9.8,12.2,8.7,3.8,90,85,73,30.39,30.23,11,3,20,0.00
2014-1-2,15.0,10.5,0.1,11.7,7.3,-4.1,90,86,80,30.29,30.06,27,6,40,0.00
2014-1-3,16.6,3.8,-9.1,5.9,-2.5,-11.7,89,75,54,30.48,30.15,24,4,40,0.18
2014-1-4,31.3,21.0,9.6,24.4,13.4,2.3,92,72,55,30.15,29.84,29,9,46,0.00
2014-1-5,30.4,26.5,18.2,29.1,25.5,17.5,97,96,92,30.01,29.51,12,2,24,0.03
2014-1-6,18.1,3.5,-16.1,17.5,0.3,-20.3,97,86,70,30.16,29.52,24,5,44,0.00
2014-1-7,4.9,-6.9,-15.9,-2.9,-11.8,-19.9,83,78,68,30.35,30.15,20,4,35,0.00
2014-1-8,19.0,4.7,-8.5,9.7,0.7,-11.1,94,83,66,30.51,30.32,13,1,20,0.04
2014-1-9,20.0,6.6,-9.9,18.9,4.1,-12.3,95,89,75,30.65,30.27,15,3,22,0.05
2014-1-10,35.0,28.8,20.1,34.2,28.0,19.0,97,96,95,30.27,29.85,14,3,26,0.18
2014-1-18,16.4,15.4,14.8,12.9,12.5,12.0,91,88,82,29.87,29.80,8,1,13,0.00
2014-1-19,31.2,21.5,10.8,23.5,17.7,9.6,95,85,66,29.79,29.50,30,5,56,0.02
2014-1-20,28.4,20.8,8.5,26.6,16.0,2.8,93,82,63,30.06,29.47,16,4,30,0.00
2014-1-21,13.0,4.1,-6.0,3.0,-2.8,-9.1,88,73,58,30.22,30.06,20,5,33,0.01
2014-1-22,9.6,1.4,-10.0,6.1,-2.6,-13.4,87,82,66,30.22,29.94,24,5,40,0.00
2014-1-23,16.3,5.8,-3.3,9.5,1.8,-6.6,89,83,69,30.47,29.95,22,4,36,0.00
2014-1-24,15.2,5.4,-3.4,11.1,-0.1,-6.5,87,78,65,30.48,29.52,32,10,61,0.00
2014-1-25,25.6,15.4,0.2,21.1,10.0,-5.2,87,78,59,29.79,29.25,26,6,43,0.00
2014-1-26,24.3,9.9,-4.0,20.0,5.9,-7.5,89,83,74,29.80,29.36,23,5,36,0.00
2014-1-27,18.7,5.6,-6.9,15.8,-1.3,-11.6,88,73,55,30.33,29.39,28,10,40,0.00
2014-1-28,10.2,-1.8,-11.6,0.2,-8.4,-15.2,84,73,51,30.41,30.19,12,2,25,0.01
2014-1-29,18.4,6.8,-5.3,6.1,-1.1,-10.6,81,70,57,30.20,30.05,18,4,30,0.00
2014-1-30,25.5,16.9,7.4,21.2,8.5,1.2,85,69,57,30.16,29.76,30,9,45,0.01
2014-1-31,32.7,27.5,23.9,24.0,21.0,17.6,83,76,64,30.10,29.80,14,1,23,0.01
2014-2-1,32.1,27.1,23.1,30.5,24.4,18.4,93,89,76,30.11,29.76,5,0,10,0.00
2014-2-2,24.5,20.6,13.5,21.0,16.5,10.0,89,83,73,30.25,29.93,10,2,26,0.00
2014-2-3,27.1,11.5,-2.1,15.5,5.7,-5.4,88,78,54,30.39,30.23,9,0,14,0.21
2014-2-4,24.9,12.8,0.3,15.3,7.3,-3.7,86,78,64,30.47,30.12,6,0,14,0.03
2014-2-5,24.4,16.9,3.4,19.8,12.4,-0.5,87,82,72,30.35,29.89,20,4,30,0.00
2014-2-6,19.8,9.4,-3.2,12.4,3.9,-6.8,85,78,69,30.38,30.20,19,3,36,0.00
2014-2-7,17.0,6.5,1.4,6.0,-0.3,-4.0,81,73,60,30.33,30.23,19,4,38,0.01
2014-2-8,20.4,9.8,-2.2,11.2,3.7,-7.1,83,76,66,30.33,30.15,16,2,26,0.02
2014-2-9,25.4,15.0,9.1,14.3,9.5,4.7,85,78,63,30.15,29.97,17,3,28,0.02
2014-2-10,20.8,14.0,7.4,11.7,7.7,2.6,86,76,62,30.35,30.13,14,4,23,0.01
2014-2-11,17.8,8.9,-1.3,5.9,1.5,-6.1,84,71,55,30.50,30.35,12,2,17,0.01
2014-2-12,23.8,8.7,-9.3,11.2,1.3,-13.5,84,72,54,30.48,30.07,16,2,23,0.07
2014-2-13,32.6,21.3,10.1,15.4,11.1,5.2,83,65,41,30.06,29.49,19,4,28,0.20
2014-2-14,28.0,22.8,18.4,21.7,15.7,11.6,85,74,59,29.76,29.42,20,3,34,0.00
2014-2-15,21.8,11.7,2.9,15.7,4.3,-2.6,80,72,56,30.05,29.76,20,6,33,0.00
2014-2-16,26.9,14.2,-2.5,17.2,8.4,-6.9,85,77,64,30.38,29.95,16,2,23,0.07
2014-2-17,20.5,8.8,-7.7,17.3,2.7,-12.2,87,76,55,30.44,29.60,26,5,42,0.00
2014-2-18,35.6,26.5,17.1,26.6,19.5,12.3,87,75,59,29.96,29.59,22,7,39,0.25
2014-2-19,44.5,34.8,19.6,30.5,26.0,15.5,87,70,51,30.00,29.55,21,4,37,0.08
2014-2-20,34.5,29.6,25.2,32.7,23.9,-99.9,93,85,79,30.03,29.37,21,4,34,0.36
2014-2-21,43.9,34.5,29.4,42.0,24.8,-99.9,92,68,52,29.72,29.34,30,9,68,0.08
2014-2-22,38.9,32.9,27.4,26.3,15.4,5.8,77,49,33,29.95,29.69,28,7,54,0.00
2014-2-23,31.3,24.2,19.4,17.0,12.6,8.0,72,61,48,30.05,29.93,28,7,46,0.00
2014-2-24,23.9,19.1,13.8,12.8,10.1,5.8,79,67,59,30.15,30.02,23,7,39,0.00
2014-2-25,26.1,16.1,8.8,13.3,7.1,2.4,78,67,58,30.16,29.97,20,5,39,0.00
2014-2-26,17.6,9.5,1.7,3.2,-0.3,-3.4,80,64,48,30.13,29.64,21,6,36,0.00
2014-2-27,12.1,6.9,-4.8,6.2,-3.7,-10.7,81,62,40,30.26,29.52,37,8,65,0.00
2014-2-28,19.1,6.1,-9.8,7.0,-3.2,-14.6,80,66,42,30.40,30.10,23,5,37,0.00
2014-3-1,26.1,19.9,13.6,20.5,13.7,7.0,84,76,68,30.26,30.05,14,3,22,0.00
2014-3-2,20.7,10.7,-1.7,11.0,2.9,-6.5,83,70,50,30.38,30.23,13,2,20,0.19
2014-3-3,19.2,5.2,-7.4,1.3,-5.1,-12.7,80,63,38,30.50,30.37,11,2,20,0.06
2014-3-4,19.5,12.3,-1.1,7.1,-0.4,-6.4,78,57,37,30.44,30.18,16,2,23,0.00
2014-3-5,27.7,17.3,5.5,15.1,8.2,1.6,83,67,55,30.53,30.24,15,3,26,0.03
2014-3-6,30.0,15.6,4.3,14.4,6.6,0.3,83,68,46,30.54,30.17,22,6,34,0.02
2014-3-7,48.2,28.4,4.8,27.1,17.4,0.0,84,65,41,30.17,29.84,18,3,28,0.02
2014-3-8,38.2,30.0,17.2,29.4,22.2,13.2,84,72,63,30.15,29.86,17,4,28,0.02
2014-3-9,36.8,25.1,11.8,25.1,16.5,8.3,87,71,45,30.23,29.79,20,4,36,0.00
2014-3-10,55.7,43.0,32.2,36.1,31.9,25.0,74,65,46,29.79,29.46,18,5,36,0.00
2014-3-11,53.3,41.6,35.0,36.9,33.5,30.4,90,74,44,29.71,29.58,15,2,24,0.11
2014-3-12,36.2,22.2,1.8,33.3,17.6,-2.1,90,82,64,30.03,29.56,10,1,28,0.01
2014-3-13,26.5,12.4,-3.4,11.8,2.9,-7.2,84,67,42,30.18,29.97,24,4,36,0.09
2014-3-14,50.9,36.0,19.2,34.6,25.1,11.3,79,65,50,29.96,29.47,40,8,63,0.21
2014-3-15,38.8,34.6,23.5,29.7,23.9,13.8,77,65,45,30.25,29.64,25,11,42,0.00
2014-3-16,25.6,17.1,8.7,13.7,6.6,0.6,74,63,45,30.41,30.25,19,5,40,0.00
2014-3-17,33.1,18.7,5.5,15.5,7.6,0.7,80,63,34,30.23,29.88,16,4,26,0.00
2014-3-18,47.9,32.8,21.5,32.5,23.8,15.0,82,69,54,30.00,29.84,20,5,30,0.00
2014-3-19,44.6,38.5,32.9,42.1,34.3,27.2,90,84,76,29.86,29.53,26,7,46,0.20
2014-3-20,36.5,33.2,26.8,30.7,25.9,20.4,85,74,62,30.03,29.75,26,6,42,0.00
2014-3-21,45.0,31.5,19.0,28.7,22.7,16.1,88,71,45,30.08,29.66,19,4,34,0.03
2014-3-22,40.5,34.1,24.6,35.0,27.7,16.7,92,77,61,30.20,29.63,17,4,28,0.21
2014-3-23,29.1,20.7,12.2,16.7,9.7,4.4,73,62,47,30.36,30.20,21,6,37,0.00
2014-3-24,32.0,22.4,11.7,16.8,10.5,4.8,78,61,41,30.34,30.07,22,3,38,0.00
2014-3-25,33.6,23.1,16.3,21.7,14.5,5.9,81,69,47,30.14,29.89,27,7,48,0.00
2014-3-26,33.2,20.9,7.3,17.1,8.8,3.6,84,61,36,30.33,30.15,18,4,34,0.02
2014-3-27,39.7,32.6,24.2,33.9,25.4,16.8,85,74,65,30.17,29.63,26,8,44,0.09
2014-3-28,48.7,42.8,36.5,43.4,36.7,30.4,85,78,72,30.15,29.50,26,8,47,0.00
2014-3-29,37.0,34.0,30.6,30.6,28.2,25.4,83,79,74,30.16,30.03,22,4,38,0.00
2014-3-30,52.1,36.5,24.9,28.7,23.7,20.4,85,62,35,30.18,30.03,20,4,31,0.00
2014-3-31,59.8,42.2,25.5,32.9,26.7,21.1,88,58,30,30.19,29.95,21,5,33,0.00
2014-4-1,61.3,45.3,36.3,43.8,32.6,22.6,76,61,41,29.97,29.63,28,8,54,0.00
2014-4-2,56.3,41.5,30.1,31.6,26.7,23.6,76,57,30,30.15,29.97,14,3,22,0.00
2014-4-3,38.8,35.1,32.6,33.3,27.3,20.0,85,73,58,30.16,29.80,20,4,33,0.16
2014-4-4,46.4,37.4,34.0,44.4,34.6,29.9,93,89,82,29.80,29.38,13,4,22,0.26
2014-4-5,49.7,36.9,29.6,30.0,25.6,22.5,85,65,38,30.15,29.67,22,8,39,0.01
2014-4-6,59.5,40.9,23.9,31.6,24.5,13.6,89,57,24,30.20,29.95,16,2,21,0.00
2014-4-7,53.9,41.1,30.2,39.0,31.3,23.4,92,69,42,29.99,29.44,14,2,23,0.30
2014-4-8,62.4,46.5,34.4,38.8,34.6,29.0,92,66,33,29.76,29.42,22,5,32,0.12
2014-4-9,58.0,46.1,32.6,35.5,29.1,21.0,81,54,26,29.94,29.76,19,4,33,0.00
2014-4-10,70.6,54.8,44.3,46.8,39.9,33.4,70,58,39,29.87,29.56,33,8,58,0.00
2014-4-11,68.1,51.9,35.0,39.0,32.4,23.0,87,53,20,30.00,29.83,20,3,36,0.00
2014-4-12,73.3,56.2,40.1,48.1,39.7,33.1,85,57,27,30.06,29.70,25,4,43,0.02
2014-4-13,76.7,61.4,48.0,60.0,52.2,43.2,86,72,55,29.84,29.53,24,6,50,0.06
2014-4-14,69.8,57.2,31.0,55.2,46.1,28.1,90,67,52,29.75,29.33,43,12,75,0.05
2014-4-15,33.9,27.8,23.5,28.0,21.1,15.0,90,76,54,30.22,29.75,29,8,47,0.24
2014-4-16,44.7,32.1,19.2,27.0,19.7,12.8,86,62,33,30.42,30.22,22,4,34,0.07
2014-4-17,64.2,47.7,31.8,40.3,32.2,24.0,81,57,34,30.35,30.12,22,7,40,0.00
2014-4-18,63.7,51.8,38.5,49.9,42.0,31.2,89,70,43,30.30,30.14,17,2,24,0.05
2014-4-19,60.5,44.9,31.2,35.6,31.4,26.6,83,61,34,30.43,30.25,17,5,28,0.00
2014-4-20,75.3,55.6,38.0,40.2,33.7,27.4,79,49,17,30.31,30.02,17,4,28,0.00
2014-4-21,82.6,63.5,44.7,52.7,42.4,34.6,82,49,26,30.03,29.65,18,2,35,0.01
2014-4-22,57.8,50.1,39.4,53.9,41.7,30.7,90,73,52,29.88,29.59,28,9,44,0.05
2014-4-23,58.5,44.7,35.5,35.1,28.3,17.3,77,55,26,30.08,29.89,21,6,31,0.00
2014-4-24,58.5,46.2,34.6,30.2,23.2,16.2,62,41,23,30.16,29.81,20,6,30,0.00
2014-4-25,51.9,45.0,42.0,43.7,36.2,23.6,90,72,41,29.81,29.60,16,3,26,0.23
2014-4-26,59.8,46.7,37.2,40.2,36.5,30.8,90,69,44,30.07,29.72,25,6,42,0.00
2014-4-27,56.9,44.5,32.3,38.7,32.9,27.3,82,64,44,30.17,30.01,21,6,36,0.00
2014-4-28,52.9,47.9,42.6,39.9,35.7,32.3,71,62,48,30.05,29.74,26,8,42,0.00
2014-4-29,76.5,56.9,44.8,59.4,48.1,37.0,93,75,35,29.75,29.51,26,5,40,0.82
2014-4-30,69.0,56.1,51.4,57.1,51.2,48.5,91,83,59,29.77,29.63,15,4,23,0.11
2014-5-1,54.9,48.3,41.9,50.0,40.8,36.8,91,75,55,29.72,29.66,22,4,46,0.04
2014-5-2,55.4,47.4,42.7,47.0,43.1,40.0,90,84,70,29.73,29.66,12,2,22,0.10
2014-5-3,60.5,49.8,44.7,47.0,42.1,36.4,91,76,48,29.76,29.57,35,6,57,0.07
2014-5-4,58.3,49.6,40.4,43.0,36.4,29.5,86,62,37,30.04,29.76,31,6,50,0.00
2014-5-5,57.4,47.0,38.1,42.1,37.2,33.3,84,69,46,30.05,29.89,12,2,22,0.00
2014-5-6,64.2,50.2,36.1,43.8,37.5,33.5,90,64,39,30.05,29.95,13,3,24,0.00
2014-5-7,59.4,49.4,42.4,51.4,42.6,32.8,90,77,63,30.10,29.89,20,5,39,0.47
2014-5-8,85.5,67.7,49.6,66.6,57.0,46.4,89,70,52,29.96,29.75,12,3,21,0.00
2014-5-9,78.6,69.7,62.6,62.8,59.4,54.8,83,69,54,29.81,29.59,35,6,60,0.10
2014-5-10,72.9,61.2,50.6,55.4,45.5,38.7,80,58,35,29.92,29.70,19,5,32,0.00
2014-5-11,79.1,63.0,43.7,57.5,47.9,40.6,89,61,31,30.03,29.86,17,3,29,0.00
2014-5-12,70.7,64.0,57.8,62.7,59.5,53.6,93,85,65,29.95,29.86,8,2,16,0.50
2014-5-13,85.5,69.0,61.0,72.5,64.1,57.5,93,85,58,29.96,29.76,27,3,59,0.35
2014-5-14,61.7,55.3,47.4,57.8,51.7,44.8,90,87,80,30.08,29.90,10,2,22,0.25
2014-5-15,55.9,49.4,42.8,54.1,46.5,38.2,93,89,82,29.93,29.63,14,2,29,0.51
2014-5-16,56.8,45.0,33.9,42.0,37.2,31.6,91,75,50,29.97,29.88,13,2,22,0.00
2014-5-17,56.8,47.3,41.2,40.0,37.3,31.8,84,69,42,30.13,29.96,13,2,26,0.00
2014-5-18,68.9,53.3,37.8,43.4,37.2,32.7,88,58,30,30.20,30.10,16,2,29,0.00
2014-5-19,73.1,59.6,43.0,46.5,40.3,35.1,82,51,26,30.25,30.05,16,2,34,0.00
2014-5-20,74.5,60.9,50.9,60.1,51.1,41.3,87,71,53,30.16,29.78,16,3,38,0.06
2014-5-21,85.0,69.6,57.2,68.5,60.1,52.8,90,73,45,29.81,29.68,12,1,20,0.02
2014-5-22,72.5,63.2,54.1,56.6,51.9,44.5,82,67,51,29.98,29.76,18,5,30,0.00
2014-5-23,70.5,58.7,47.9,54.6,48.1,42.1,85,68,53,30.09,29.98,18,4,28,0.00
2014-5-24,79.6,63.7,47.9,56.3,49.5,45.3,91,64,32,30.15,30.02,7,1,17,0.00
2014-5-25,84.4,68.5,51.0,58.2,51.9,47.9,89,59,32,30.11,29.95,7,0,17,0.00
2014-5-26,87.1,73.0,56.6,62.6,56.7,51.7,86,59,34,30.01,29.81,10,1,26,0.00
2014-5-27,84.3,72.3,66.1,72.4,65.4,60.8,91,79,56,29.86,29.73,18,1,34,0.20
2014-5-28,68.2,62.4,56.1,65.7,59.1,52.2,92,88,79,30.03,29.81,6,0,17,0.93
2014-5-29,76.6,62.5,49.7,62.7,53.8,47.3,91,74,49,30.10,29.98,10,1,22,0.00
2014-5-30,82.8,67.0,50.9,63.6,54.3,48.3,90,66,38,30.15,30.03,7,0,16,0.00
2014-5-31,82.7,68.5,57.0,63.0,54.9,46.6,81,63,40,30.19,30.07,7,1,18,0.01
2014-6-1,86.4,70.0,54.0,62.4,53.9,43.7,81,58,37,30.14,29.89,11,2,25,0.00
2014-6-2,84.3,72.2,65.4,71.6,64.5,56.7,90,77,60,29.93,29.74,21,3,44,0.57
2014-6-3,81.1,70.6,58.2,67.6,60.1,50.3,91,71,40,29.85,29.71,18,4,44,0.02
2014-6-4,65.9,60.1,54.8,59.5,55.8,50.9,90,85,75,29.86,29.74,5,0,14,0.15
2014-6-5,76.0,62.9,49.8,56.0,48.9,43.2,91,62,37,29.90,29.79,15,2,26,0.00
2014-6-6,80.2,64.1,48.0,59.0,50.1,43.9,88,63,35,29.97,29.86,9,0,16,0.00
2014-6-7,84.5,68.8,53.7,61.6,53.7,47.0,90,62,30,30.01,29.81,8,0,18,0.00
2014-6-8,80.6,67.1,60.3,62.9,55.5,49.1,89,68,36,29.91,29.75,12,1,28,0.09
2014-6-9,82.2,67.5,55.1,62.8,55.2,48.7,89,67,37,29.95,29.82,7,1,18,0.00
2014-6-10,76.5,66.9,55.4,66.5,57.0,50.3,83,71,57,29.90,29.80,6,1,19,0.03
2014-6-11,74.0,67.0,61.1,68.5,62.7,52.4,91,86,62,29.80,29.62,12,1,41,0.82
2014-6-12,73.8,68.3,64.8,67.8,64.6,62.2,91,87,77,29.69,29.62,6,0,17,0.16
2014-6-13,67.3,61.1,48.7,62.5,53.6,45.1,89,76,58,29.96,29.65,13,3,27,0.00
2014-6-14,74.6,59.4,45.6,55.2,48.7,43.1,91,70,41,30.08,29.96,12,1,22,0.00
2014-6-15,79.7,67.1,52.9,60.6,54.5,48.8,88,66,36,30.09,29.85,14,3,32,0.01
2014-6-16,89.6,75.9,65.5,69.9,63.2,58.1,84,66,43,29.96,29.88,6,0,16,0.00
2014-6-17,88.1,76.8,64.7,74.3,66.2,60.5,87,71,47,29.92,29.71,18,3,40,0.00
2014-6-18,81.9,69.1,64.1,72.7,64.7,59.5,90,86,69,30.02,29.82,19,1,31,1.22
2014-6-19,76.7,69.6,62.1,69.2,64.2,55.4,91,83,72,30.07,29.92,6,0,16,0.01
2014-6-20,67.4,60.8,55.2,61.2,55.4,50.9,90,82,69,30.06,29.90,5,0,16,0.20
2014-6-21,80.7,67.2,55.2,62.6,55.6,45.9,91,69,36,29.94,29.80,6,0,13,0.00
2014-6-22,83.4,71.3,64.0,64.0,58.6,54.2,81,65,44,29.90,29.80,9,1,22,0.00
2014-6-23,77.8,69.4,59.2,70.7,63.7,53.7,89,82,68,29.87,29.77,8,0,19,0.19
2014-6-24,76.5,70.6,66.5,71.3,66.8,63.5,90,87,80,29.81,29.76,8,0,17,0.19
2014-6-25,77.6,69.4,62.7,70.5,64.6,59.3,91,84,74,29.93,29.80,10,1,20,0.00
2014-6-26,81.4,69.1,56.7,67.9,61.1,53.8,90,76,55,30.00,29.92,7,0,13,0.00
2014-6-27,85.4,71.5,56.5,68.4,59.7,50.7,85,67,46,30.06,29.97,8,0,15,0.00
2014-6-28,89.8,75.1,62.1,73.6,66.6,58.7,89,76,52,30.07,29.93,11,1,31,0.00
2014-6-29,84.8,77.5,70.7,75.2,69.6,66.7,87,77,61,29.97,29.83,11,2,27,0.06
2014-6-30,87.2,78.7,72.1,76.4,71.1,67.9,86,77,64,29.87,29.65,11,2,28,0.00
2014-7-1,84.1,74.6,65.7,70.8,65.8,62.8,90,75,54,29.67,29.46,11,2,45,0.64
2014-7-2,80.9,71.5,64.4,68.1,62.0,57.5,85,72,57,29.87,29.67,13,2,30,0.00
2014-7-3,69.3,63.4,54.8,59.5,56.6,51.5,89,79,61,30.07,29.85,14,2,28,0.32
2014-7-4,77.0,64.6,52.1,59.5,51.9,43.5,89,66,39,30.22,30.07,13,2,22,0.00
2014-7-5,79.2,66.6,52.6,57.6,52.9,49.0,88,64,38,30.23,30.01,8,1,22,0.01
2014-7-6,82.8,71.4,59.0,67.4,61.0,53.4,83,70,45,30.01,29.64,12,1,30,0.00
2014-7-7,86.1,75.2,67.2,74.6,67.5,61.1,90,77,55,29.66,29.55,11,2,32,0.49
2014-7-8,76.8,69.0,63.6,70.0,62.9,58.7,90,81,65,29.67,29.47,17,2,39,1.07
2014-7-9,75.7,66.0,58.5,62.2,58.0,54.5,88,76,56,29.95,29.67,11,2,18,0.01
2014-7-10,80.1,67.4,55.7,63.1,57.8,52.8,90,73,49,30.11,29.95,8,1,17,0.01
2014-7-11,80.9,69.3,55.6,64.9,58.5,52.3,89,70,47,30.17,30.04,7,0,21,0.00
2014-7-12,86.0,73.8,62.8,68.8,63.8,57.9,88,72,50,30.09,29.81,10,1,22,0.06
2014-7-13,85.3,74.8,65.7,71.1,66.3,59.7,89,75,52,29.81,29.70,11,2,27,0.06
2014-7-14,83.7,69.7,62.7,69.4,61.4,54.0,89,76,39,29.80,29.67,11,1,22,0.08
2014-7-15,73.8,64.5,59.1,59.8,56.6,51.7,89,76,51,29.80,29.63,13,3,31,0.00
2014-7-16,69.1,60.0,52.3,57.2,52.8,48.3,86,77,57,29.91,29.80,12,2,24,0.00
2014-7-17,77.4,67.9,55.8,56.7,54.5,52.2,87,63,47,30.07,29.93,8,1,18,0.00
2014-7-18,80.9,66.4,53.6,62.0,54.8,50.6,90,68,40,30.15,30.05,9,1,23,0.00
2014-7-19,71.7,65.9,59.2,65.2,60.4,52.8,88,82,76,30.09,29.94,6,0,20,0.00
2014-7-20,82.7,69.6,58.2,67.8,60.5,54.9,90,74,44,30.00,29.91,8,0,20,0.00
2014-7-21,88.2,74.2,61.7,66.7,61.6,57.8,89,67,41,30.05,29.96,9,0,19,0.00
2014-7-22,89.7,77.8,63.3,70.9,65.8,59.2,88,68,48,30.04,29.86,12,1,29,0.00
2014-7-23,79.8,70.3,60.0,70.3,62.1,53.0,86,75,65,30.09,29.90,14,3,28,0.00
2014-7-24,76.4,64.2,54.1,57.3,53.0,50.1,87,68,44,30.13,30.01,9,1,19,0.00
2014-7-25,77.1,66.1,52.8,60.0,55.0,49.6,89,68,48,30.09,29.92,7,1,22,0.00
2014-7-26,84.0,71.5,59.2,68.4,61.5,55.0,86,71,50,29.97,29.75,8,0,24,0.00
2014-7-27,83.6,69.0,58.8,71.3,63.7,55.9,90,83,60,29.79,29.53,25,1,37,1.11
2014-7-28,69.3,61.2,52.2,59.2,55.4,48.1,90,81,64,30.02,29.70,16,4,30,0.00
2014-7-29,73.4,60.3,48.6,60.7,53.5,45.8,90,79,58,30.02,29.92,13,1,26,0.04
2014-7-30,74.5,62.7,54.4,64.2,57.6,51.9,91,83,61,30.02,29.94,16,1,33,0.03
2014-7-31,79.2,66.1,52.5,63.5,57.7,49.6,90,75,53,30.05,29.98,10,1,24,0.00
2014-8-1,84.4,70.8,58.7,68.1,61.3,55.6,89,73,47,30.11,30.02,6,0,18,0.00
2014-8-2,78.2,68.8,60.9,68.5,62.7,57.8,89,81,59,30.15,30.06,6,0,14,0.01
2014-8-3,84.9,71.0,57.8,69.5,62.0,55.0,90,74,50,30.14,30.02,5,0,13,0.01
2014-8-4,86.3,70.8,60.4,70.6,63.5,57.1,89,78,53,30.11,30.00,9,1,17,0.01
2014-8-5,75.6,66.5,62.7,68.8,63.2,60.0,91,89,77,30.10,30.01,10,0,20,2.26
2014-8-6,78.6,66.4,56.7,67.9,58.6,53.0,91,77,46,30.08,30.01,7,1,17,0.01
2014-8-7,82.7,68.5,55.7,65.6,58.5,53.1,91,72,46,30.13,30.03,10,1,17,0.00
2014-8-8,79.9,68.1,58.2,66.7,58.4,52.7,88,72,47,30.16,30.07,8,1,23,0.00
2014-8-9,82.1,68.8,56.8,66.3,59.3,53.9,90,73,48,30.16,30.06,8,1,21,0.00
2014-8-10,84.5,71.8,60.9,71.6,64.2,57.2,87,77,58,30.12,29.99,7,1,18,0.00
2014-8-11,72.8,68.1,65.4,68.2,64.6,61.8,91,88,83,30.01,29.68,6,1,20,1.45
2014-8-12,78.8,65.4,61.0,71.0,62.2,57.8,91,89,72,29.84,29.65,13,1,27,0.79
2014-8-13,75.5,64.5,54.7,60.2,55.5,51.7,90,74,51,29.98,29.84,17,4,31,0.00
2014-8-14,70.1,60.3,50.6,54.3,49.9,46.7,88,69,46,30.07,29.96,17,4,32,0.00
2014-8-15,74.0,60.1,46.1,56.7,50.3,43.2,89,72,46,30.06,29.94,12,1,25,0.00
2014-8-16,81.6,66.9,51.8,67.9,58.5,48.8,89,75,55,29.97,29.82,13,1,34,0.14
2014-8-17,79.4,69.1,62.0,67.8,63.0,58.7,90,81,59,30.00,29.90,8,1,17,0.09
2014-8-18,79.6,68.8,60.4,68.4,62.1,57.0,88,79,61,30.00,29.82,8,0,16,0.00
2014-8-19,84.2,70.2,64.9,72.9,64.9,61.1,90,83,64,29.85,29.71,18,1,37,0.83
2014-8-20,82.3,70.6,63.9,71.8,65.3,61.2,91,83,64,29.95,29.77,9,1,26,0.01
2014-8-21,79.5,70.8,61.8,72.2,66.0,59.0,90,85,73,30.00,29.92,7,0,18,0.57
2014-8-22,82.5,73.1,65.9,74.9,68.0,63.2,91,84,70,30.01,29.93,8,0,15,0.02
2014-8-23,81.3,71.0,62.6,73.2,65.6,59.3,89,83,73,30.05,29.98,8,1,18,0.00
2014-8-24,79.5,70.4,64.8,72.1,65.8,61.2,88,85,74,30.10,30.03,8,1,20,0.00
2014-8-25,86.4,74.1,64.7,76.3,68.5,61.4,90,82,66,30.09,29.99,9,1,21,0.00
2014-8-26,89.5,74.7,68.3,77.6,69.1,65.5,90,83,60,30.07,29.96,20,0,34,0.62
2014-8-27,77.9,68.7,62.2,66.9,62.6,59.1,91,81,61,30.12,30.05,10,1,17,0.00
2014-8-28,74.2,63.4,54.7,60.2,54.7,49.2,89,75,48,30.19,30.09,10,1,18,0.00
2014-8-29,75.6,66.5,57.9,63.4,57.6,51.6,87,74,46,30.16,30.00,11,2,26,0.00
2014-8-30,82.2,74.3,66.0,72.5,67.4,61.0,87,79,65,30.03,29.83,16,2,39,0.14
2014-8-31,82.9,73.2,66.9,73.6,68.0,64.0,90,84,67,29.97,29.90,8,1,18,0.04
2014-9-1,82.1,72.4,67.7,74.4,68.3,64.5,90,87,72,29.93,29.71,13,2,38,0.86
2014-9-2,77.2,70.5,61.8,70.5,65.1,58.9,91,83,64,29.95,29.83,11,1,20,0.01
2014-9-3,82.5,69.6,57.6,68.3,62.0,55.1,91,78,54,30.04,29.95,7,1,19,0.00
2014-9-4,86.0,73.2,63.0,74.7,66.9,59.7,89,80,62,30.04,29.93,15,2,29,0.00
2014-9-5,91.4,78.5,68.9,78.9,71.4,65.6,90,79,57,30.02,29.80,15,2,31,0.77
2014-9-6,71.4,64.7,56.3,67.0,58.9,53.2,91,82,61,30.14,29.94,18,3,28,0.34
2014-9-7,74.9,62.6,51.5,61.0,54.2,49.1,91,76,46,30.23,30.14,8,0,13,0.01
2014-9-8,76.8,64.5,53.6,64.4,56.8,51.0,90,77,43,30.21,30.04,8,1,18,0.00
2014-9-9,80.7,67.7,61.0,68.9,60.6,56.0,90,79,53,30.06,29.95,8,1,20,0.00
2014-9-10,72.7,69.1,64.3,69.4,65.6,58.3,90,88,78,29.98,29.56,20,2,47,1.36
2014-9-11,71.5,55.9,50.6,68.5,52.2,47.4,91,87,79,30.22,29.59,18,3,32,0.01
2014-9-12,60.9,53.6,46.8,54.4,49.9,44.5,91,87,73,30.30,30.17,12,1,22,0.00
2014-9-13,55.2,50.2,42.5,51.9,46.5,40.2,91,87,71,30.36,30.10,19,2,34,0.53
2014-9-14,62.5,50.4,40.0,49.5,43.7,37.9,92,79,50,30.37,30.19,8,0,17,0.00
2014-9-15,61.7,52.6,44.4,53.7,48.5,42.1,91,86,71,30.21,30.04,6,0,16,0.02
2014-9-16,65.4,55.2,47.9,52.9,48.5,44.6,91,79,51,30.19,30.07,10,2,19,0.00
2014-9-17,67.3,52.9,41.1,52.1,46.1,38.9,92,79,51,30.09,29.96,11,1,19,0.00
2014-9-18,66.8,54.2,46.5,56.9,49.3,43.7,91,84,63,30.25,30.03,14,2,23,0.00
2014-9-19,67.1,52.7,40.0,53.2,45.2,37.8,91,77,48,30.29,30.05,9,1,20,0.00
2014-9-20,76.4,64.2,53.5,65.9,58.0,50.2,90,80,65,30.05,29.76,17,2,38,0.20
2014-9-21,50.5,48.5,47.7,47.2,45.7,44.9,90,90,88,30.03,29.97,8,4,15,0.32
2014-9-22,59.3,50.8,44.9,48.5,44.1,40.2,90,78,59,30.27,30.03,18,3,29,0.00
2014-9-23,70.1,55.8,43.5,57.9,49.6,41.4,92,80,56,30.39,30.27,8,0,14,0.00
2014-9-24,73.2,59.3,48.4,62.0,53.2,46.0,92,81,56,30.46,30.32,9,1,21,0.00
2014-9-25,74.9,61.2,52.5,62.4,54.8,49.7,91,80,51,30.35,30.24,5,0,12,0.00
2014-9-26,75.1,60.6,48.4,64.3,54.7,46.1,91,82,57,30.35,30.24,9,1,16,0.00
2014-9-27,76.2,61.8,50.7,65.2,55.4,48.4,91,81,52,30.34,30.19,5,0,15,0.00
2014-9-28,74.2,62.1,52.2,63.5,56.4,49.8,91,82,58,30.22,30.06,6,0,10,0.00
2014-9-29,76.1,63.4,52.3,63.6,56.7,49.9,91,80,53,30.06,29.86,8,1,15,0.00
2014-9-30,64.6,53.9,50.8,60.7,51.0,48.3,91,89,82,30.04,29.87,15,4,29,0.18
2014-10-1,68.2,57.7,51.9,57.4,53.0,49.3,91,84,63,30.09,30.00,9,1,18,0.01
2014-10-2,69.6,62.5,56.9,62.2,58.6,54.3,91,87,73,30.06,29.79,12,2,27,0.05
2014-10-3,66.5,60.8,49.3,62.4,57.7,46.8,91,89,82,29.79,29.44,17,3,46,0.38
2014-10-4,49.2,43.0,40.1,46.7,38.5,30.9,92,84,54,29.74,29.61,8,1,23,0.28
2014-10-5,53.8,46.6,41.9,38.7,35.8,30.5,85,67,46,29.74,29.67,12,1,39,0.01
2014-10-6,60.8,50.5,45.2,48.4,43.0,36.2,91,76,53,29.71,29.60,14,2,33,0.11
2014-10-7,58.1,49.5,41.4,51.2,45.0,38.6,92,84,66,29.78,29.64,16,1,34,0.09
2014-10-8,58.3,49.8,43.2,47.2,38.6,27.0,93,69,32,29.99,29.75,21,3,46,0.06
2014-10-9,57.6,46.6,37.2,39.5,36.4,31.4,89,70,38,30.11,29.98,15,2,30,0.00
2014-10-10,56.4,45.5,35.8,42.7,36.4,32.3,90,72,45,30.19,30.10,17,2,29,0.00
2014-10-11,57.2,43.9,34.9,41.1,34.3,26.9,90,72,35,30.27,30.16,16,2,24,0.00
2014-10-12,59.3,46.8,33.7,46.5,38.5,31.0,91,74,49,30.25,30.01,16,2,29,0.00
2014-10-13,66.2,59.3,50.4,65.4,57.7,46.4,99,94,84,30.02,29.80,10,2,23,0.13
2014-10-14,67.0,63.2,57.4,63.5,60.2,56.6,98,90,78,29.79,29.59,16,3,39,0.41
2014-10-15,63.4,57.7,52.2,56.9,54.8,51.2,98,90,70,29.79,29.69,11,1,27,0.00
2014-10-16,60.7,54.1,48.7,55.7,51.9,47.6,97,92,78,29.77,29.68,10,0,16,0.00
2014-10-17,62.0,54.9,49.1,53.8,50.6,47.2,97,86,64,29.68,29.49,19,3,40,0.02
2014-10-18,49.1,44.0,39.7,47.3,39.8,34.8,94,85,74,30.12,29.63,21,4,42,0.04
2014-10-19,52.1,41.5,31.0,36.2,31.6,26.3,90,70,38,30.22,29.97,12,1,27,0.00
2014-10-20,55.7,49.2,44.0,50.0,44.9,36.1,95,85,69,29.97,29.77,12,1,23,0.19
2014-10-21,47.3,44.5,42.1,46.1,40.9,35.6,95,87,76,30.23,29.87,10,4,18,0.11
2014-10-22,54.6,45.4,37.4,44.0,39.1,35.2,92,79,61,30.35,30.22,17,2,27,0.01
2014-10-23,58.4,43.3,33.1,44.3,36.7,30.8,93,79,44,30.30,30.09,10,1,18,0.05
2014-10-24,61.9,47.2,34.8,47.8,41.2,32.6,94,80,55,30.12,29.95,12,0,19,0.05
2014-10-25,66.1,54.5,44.9,53.7,42.3,26.1,94,68,24,29.95,29.69,23,4,45,0.01
2014-10-26,60.1,48.9,39.2,37.9,30.9,25.8,88,52,28,29.96,29.81,17,3,28,0.05
2014-10-27,69.8,52.9,33.6,55.4,41.2,30.6,90,67,39,29.97,29.68,19,3,38,0.03
2014-10-28,67.8,59.7,48.6,59.3,47.4,31.2,95,65,38,29.89,29.68,12,2,25,0.23
2014-10-29,49.8,45.3,42.8,38.8,35.2,31.5,79,67,52,30.08,29.89,14,2,31,0.01
2014-10-30,50.6,43.4,33.2,35.5,32.9,29.5,88,67,45,30.16,30.00,9,1,20,0.09
2014-10-31,44.6,39.6,33.4,38.7,34.6,29.5,89,82,67,30.14,29.89,14,4,28,0.29
2014-11-1,41.6,33.9,26.6,29.6,22.5,17.1,85,63,42,30.39,30.15,28,7,50,0.10
2014-11-2,48.2,34.1,23.4,22.2,17.3,8.5,82,54,20,30.47,30.28,10,1,18,0.01
2014-11-3,59.9,48.6,37.9,30.8,22.4,14.2,47,35,24,30.28,30.02,16,2,43,0.01
2014-11-4,55.4,50.6,42.2,48.4,36.4,24.4,91,61,36,30.03,29.85,18,4,37,0.10
2014-11-5,55.9,44.6,39.0,36.7,32.5,23.8,82,65,31,30.13,29.99,16,2,28,0.04
2014-11-6,48.4,43.5,36.7,42.6,37.7,28.7,89,79,68,30.02,29.71,15,3,33,0.10
2014-11-7,43.2,36.5,32.0,28.9,21.7,13.5,73,55,33,30.13,29.95,19,4,37,0.01
2014-11-8,41.9,37.9,33.4,36.4,30.4,24.5,87,74,61,29.95,29.70,17,3,30,0.11
2014-11-9,42.1,38.3,31.1,29.4,26.5,23.5,81,62,50,29.94,29.79,21,2,32,0.03
2014-11-10,56.5,46.6,38.5,34.7,29.4,23.5,73,52,35,29.96,29.74,21,3,40,0.01
2014-11-11,60.4,48.4,35.7,47.6,33.4,26.8,86,58,38,29.90,29.62,24,5,42,0.03
2014-11-12,35.6,32.4,29.1,28.6,17.9,13.8,75,54,44,30.23,29.90,11,4,20,0.01
2014-11-13,35.5,29.1,23.5,22.2,17.0,7.1,76,61,34,30.21,30.13,12,2,21,0.04
2014-11-14,33.1,27.8,22.6,21.2,16.8,10.8,77,64,40,30.35,30.20,13,2,21,0.04
2014-11-15,33.9,27.9,23.8,19.2,14.1,8.1,76,57,36,30.40,30.24,14,2,26,0.00
2014-11-16,34.3,29.8,27.3,24.9,18.1,12.7,83,62,44,30.25,29.90,14,2,25,0.02
2014-11-17,30.0,25.1,14.5,24.4,16.0,2.8,82,68,47,29.90,29.64,20,3,34,0.00
2014-11-18,21.9,15.5,11.3,5.0,2.0,0.0,63,54,41,30.14,29.83,19,4,35,0.04
2014-11-19,26.8,20.6,13.1,21.4,11.2,0.7,80,66,53,30.14,29.73,21,6,37,0.02
2014-11-20,27.5,21.1,13.5,17.8,12.1,5.2,78,68,39,30.21,29.85,29,4,46,0.02
2014-11-21,27.5,18.0,7.7,8.5,4.5,-0.1,75,57,30,30.51,30.21,13,2,23,0.11
2014-11-22,47.1,34.1,19.2,42.1,26.8,6.3,88,75,46,30.36,29.92,16,4,32,0.10
2014-11-23,49.6,46.3,43.9,45.3,41.2,38.5,87,82,74,29.94,29.22,15,3,34,0.72
2014-11-24,55.2,46.1,32.6,51.0,37.0,17.6,87,71,51,29.70,29.03,28,8,55,0.58
2014-11-25,32.7,30.2,29.1,18.5,13.5,8.6,57,49,39,30.22,29.70,11,3,23,0.00
2014-11-26,32.5,30.0,28.4,14.0,11.3,7.8,52,45,37,30.22,30.09,6,1,14,0.00
2014-11-27,32.0,27.4,21.2,14.6,8.1,-14.3,59,44,21,30.33,30.11,13,3,25,0.00
2014-11-28,27.3,22.0,15.8,13.1,-1.5,-14.1,59,37,17,30.39,30.10,16,3,27,0.01
2014-11-29,48.7,37.8,27.3,33.9,15.6,4.9,56,41,20,30.10,29.69,23,6,45,0.04
2014-11-30,57.5,50.3,36.1,41.9,36.3,23.3,64,58,48,30.09,29.69,20,4,33,0.04
2014-12-1,36.3,26.8,17.6,23.7,-1.0,-61.2,60,17,1,30.68,30.09,21,4,35,0.00
2014-12-2,34.9,26.8,18.3,-99.9,0.0,200.0,0,0,100,30.66,30.07,14,4,24,0.00
2014-12-3,38.8,31.6,25.8,-99.9,0.0,200.0,0,0,100,30.33,30.01,30,4,47,0.05
2014-12-4,33.3,26.5,22.3,-99.9,0.0,200.0,0,0,100,30.48,30.33,12,2,17,0.00
2014-12-5,37.6,33.8,28.0,-99.9,0.0,200.0,0,0,100,30.39,30.18,11,1,17,0.00
2014-12-6,38.5,33.3,26.1,-99.9,0.0,200.0,0,0,100,30.65,30.19,23,6,36,0.01
2014-12-7,35.9,28.2,19.8,-99.9,0.0,200.0,0,0,100,30.74,30.46,15,4,23,0.05
2014-12-8,40.9,35.1,30.4,-99.9,0.0,200.0,0,0,100,30.46,30.05,14,4,30,0.13
2014-12-9,36.8,34.7,30.9,-99.9,0.0,200.0,0,0,100,30.27,30.05,10,4,24,0.02
2014-12-10,30.9,26.1,21.9,-99.9,0.0,200.0,0,0,100,30.32,30.12,12,6,24,0.03
2014-12-11,38.2,27.9,19.6,-99.9,0.0,200.0,0,0,100,30.13,30.02,21,6,38,0.03
2014-12-12,33.8,30.6,27.0,-99.9,0.0,200.0,0,0,100,30.24,30.11,10,4,22,0.01
2014-12-13,41.0,36.5,31.5,-99.9,0.0,200.0,0,0,100,30.20,29.99,15,4,25,0.03
2014-12-14,47.7,43.6,40.5,-99.9,0.0,200.0,0,0,100,30.07,29.99,14,2,28,0.09
2014-12-15,46.4,43.2,39.3,-99.9,0.0,200.0,0,0,100,30.06,29.82,14,2,24,0.07
2014-12-16,44.2,42.0,35.8,-99.9,0.0,200.0,0,0,100,29.88,29.65,13,3,28,0.27
2014-12-17,35.8,30.1,26.1,-99.9,0.0,200.0,0,0,100,30.17,29.88,13,6,25,0.04
2014-12-18,31.8,29.4,27.1,-99.9,0.0,200.0,0,0,100,30.23,30.16,8,2,23,0.01
2014-12-19,32.2,25.8,19.7,-99.9,0.0,200.0,0,0,100,30.35,30.21,9,1,15,0.03
2014-12-20,29.3,25.8,18.9,-99.9,0.0,200.0,0,0,100,30.34,30.27,9,0,15,0.03
2014-12-21,33.5,28.8,22.5,-99.9,0.0,200.0,0,0,100,30.33,30.20,13,3,22,0.02
2014-12-22,38.3,31.3,25.3,-99.9,0.0,200.0,0,0,100,30.20,29.87,13,3,21,0.01
2014-12-23,46.6,40.0,34.7,-99.9,0.0,200.0,0,0,100,29.87,29.75,7,2,18,0.07
2014-12-24,44.9,40.7,33.2,-99.9,0.0,200.0,0,0,100,29.75,29.17,11,2,28,0.96
2014-12-25,36.9,35.3,32.0,30.6,11.9,29.1,89,33,76,30.13,29.47,10,3,22,0.00
2014-12-26,53.4,37.9,31.4,38.0,34.0,29.1,91,86,70,30.16,30.04,17,2,23,0.02
2014-12-27,47.5,42.5,36.3,44.3,39.4,32.6,91,88,78,30.12,29.90,21,5,48,0.08
2014-12-28,36.3,32.8,25.9,32.9,27.6,22.0,89,81,58,30.22,29.98,11,2,21,0.05
2014-12-29,31.4,25.3,18.2,22.3,17.0,11.7,86,70,51,30.45,30.22,18,3,28,0.00
2014-12-30,24.7,18.0,13.3,14.1,9.7,5.0,85,70,54,30.59,30.45,18,4,33,0.05
2014-12-31,21.9,16.0,11.0,11.5,6.4,1.5,85,65,51,30.53,30.09,21,4,38,0.00
2015-1-1,29.3,22.5,16.7,18.2,12.2,6.8,73,64,50,30.09,29.88,21,5,40,0.00
2015-1-2,34.8,28.4,23.8,22.0,19.6,16.6,85,69,53,30.36,30.06,18,2,34,0.00